Regional Weather Roundup
Issued by NWS Sioux Falls, SD

Home | Current Version | Previous Version | Graphics & Text | Print | Product List | Glossary On
Versions: 1 2 3 4 5 6 7 8 9 10 11 12 13 14 15 16 17 18 19 20 21 22 23 24 25 26 27 28 29 30 31 32 33 34 35 36 37 38 39 40 41 42 43 44 45 46 47 48 49 50
000
ASUS43 KFSD 271602
RWRFSD

WEATHER ROUNDUP FOR SE SOUTH DAKOTA/SW MINNESOTA/NW IOWA
NATIONAL WEATHER SERVICE SIOUX FALLS SD
1000 AM CST MON FEB 27 2017

NOTE: "FAIR" INDICATES FEW OR NO CLOUDS BELOW 12,000 FEET WITH NO
SIGNIFICANT WEATHER AND OR OBSTRUCTIONS TO VISIBILITY.


SDZ038>040-050-052>070-271700-
SOUTHEAST SOUTH DAKOTA

CITY           SKY/WX    TMP DP  RH WIND       PRES   REMARKS
BROOKINGS      CLOUDY    29  22  75 S8        29.87S WCI  21
CHAMBERLAIN    PTSUNNY   35  21  56 S12       29.79S WCI  27
HURON          MOSUNNY   28  20  71 S10       29.83F WCI  19
MADISON        FAIR      34  19  55 SW8       29.87R WCI  27
MITCHELL       MOSUNNY   32  19  58 S6        29.87F WCI  26
SIOUX FALLS    PTSUNNY   32  22  66 S9        29.91S WCI  24
WINNER         FAIR      35  17  47 S21G28    29.74F WCI  24
YANKTON        SUNNY     25  16  68 E5        29.91S WCI  19
$$

MNZ071-072-080-081-089-090-097-098-271700-
SOUTHWEST MINNESOTA

CITY           SKY/WX    TMP DP  RH WIND       PRES   REMARKS
FAIRMONT       SUNNY     29  22  75 S13       29.98R WCI  19
JACKSON          N/A     32  21  64 S13       29.95S WCI  22
LUVERNE        SUNNY     32  25  74 S12       29.93R WCI  23
MARSHALL       CLOUDY    35  20  54 SW10      29.91R WCI  27
MONTEVIDEO     CLOUDY    32  27  80 SW6       29.93R WCI  26
PIPESTONE      SUNNY     34  23  64 S9        29.88S WCI  26
REDWOOD FALLS  CLOUDY    35  25  66 SW13      29.93S WCI  26
TRACY          MOSUNNY   37  25  61 SW18      29.90S
WINDOM         SUNNY     36  23  60 S15       29.93R
WORTHINGTON    MOSUNNY   33  23  66 S17       29.93R WCI  22
$$

IAZ001>003-012>014-020>022-031-032-NEZ013-014-SDZ071-271700-
NORTHWEST IOWA

CITY           SKY/WX    TMP DP  RH WIND       PRES   REMARKS
CHEROKEE       SUNNY     26  26 100 S5        29.98R WCI  20
DENISON        SUNNY     36  25  64 VRB5      29.96S
ESTHERVILLE    SUNNY     24  20  84 S13       29.97R WCI  12
LE MARS        SUNNY     32  25  74 S8        29.97R WCI  25
SHELDON        SUNNY     32  28  86 S13       29.94R WCI  22
SIOUX CITY     PTSUNNY   26  22  84 E9        29.96S WCI  17
SPENCER        SUNNY     27  19  72 S7        29.98R WCI  19
STORM LAKE     SUNNY     27  21  80 S8        29.97S WCI  18
$$

ABBREVIATIONS USED IN REMARKS
   TC - TEMPERATURE IN CELSIUS
  WCI - WIND CHILL INDEX
   HX - HEAT INDEX
  VSB - VISIBILITY





USA.gov is the U.S. government's official web portal to all federal, state and local government web resources and services.